Location: Lugrin
(46.4033°N, 6.6674°E)
Time: 11:07:22
(UTC+00:00)

Cosmos 1975 - Pass Details

Date: 18 September 2020
Orbit: 540 x 562 km, 82.5° (Epoch: 24 October)

Event Time Altitude Azimuth Distance (km) Brightness Sun altitude
Rises 18:43:51 0° 200° (SSW) 2,742 6.5 -12.0°
Reaches altitude 10° 18:46:04 10° 206° (SSW) 1,851 5.6 -12.4°
Maximum altitude 18:50:02 50° 282° (WNW) 723 3.9 -13.0°
Drops below altitude 10° 18:54:02 10° 359° (N) 1,862 5.7 -13.7°
Sets 18:56:16 0° 5° (N) 2,760 6.6 -14.0°
